Columbus AFB, MS

11:16 PM CDT on July 22, 2017 (GMT -0500)
Columbus Air Force Base

Weather History for KCBM - April, 2012

Change the Weather History Date:

Friday, April 20, 2012

  Actual Average Record
Temperature  
Mean Temperature 66 °F -  
Max Temperature 78 °F 72 °F 87 °F (2017)
Min Temperature 54 °F 51 °F 37 °F (2013)
Growing Degree Days 16 (Base 50)    
Moisture  
Dew Point 59 °F    
Average Humidity 84    
Maximum Humidity 100    
Minimum Humidity 48    
Precipitation  
Precipitation 0.00 in - - ()
Sea Level Pressure  
Sea Level Pressure 29.87 in    
Wind  
Wind Speed 3 mph (SSE)    
Max Wind Speed 12 mph    
Max Gust Speed -    
Visibility 9 miles    
Events      
Averages and records for this station are not official NWS values.
T = Trace of Precipitation, MM = Missing Value Source: NWS Daily Summary

Daily Weather History Graph

Daily Weather History Graph

Search for Another Location

Airport or City:

Trip Planner

Search our weather history database for the weather conditions in past years. The results will help you decide how hot, cold, wet, or windy it might be!

Date:

Astronomy

Apr. 20, 2012 Rise Set
Actual Time 6:16 AM CDT 7:28 PM CDT
Civil Twilight 5:50 AM CDT 7:54 PM CDT
Nautical Twilight 5:19 AM CDT 8:25 PM CDT
Astronomical Twilight 4:48 AM CDT 8:57 PM CDT
Moon 5:40 AM CDT (4/20) 7:12 PM CDT (4/20)
Length of Visible Light 14h 04m
Length of Day
13h 12m
Waning Crescent, 0% of the Moon is Illuminated
Apr 20
Waning Crescent
Apr 21
New
Apr 29
First Quarter
May 5
Full
May 12
Last Quarter

Hourly Weather History & Observations

Time (CDT) Temp. Dew Point Humidity Pressure Visibility Wind Dir Wind Speed Gust Speed Precip Events Conditions
12:55 AM 57.0 °F 56.7 °F 99% 29.90 in 10.0 mi Calm Calm - N/A   Clear
1:55 AM 55.2 °F 55.2 °F 100% 29.89 in 10.0 mi Calm Calm - N/A   Clear
2:55 AM 54.7 °F 54.7 °F 100% 29.88 in 10.0 mi Calm Calm - N/A   Clear
3:55 AM 55.0 °F 55.0 °F 100% 29.89 in 10.0 mi SE 3.5 mph - N/A   Clear
4:55 AM 56.8 °F 56.8 °F 100% 29.88 in 10.0 mi SSE 4.6 mph - N/A   Mostly Cloudy
5:55 AM 58.6 °F 58.6 °F 100% 29.88 in 10.0 mi ESE 4.6 mph - N/A   Overcast
6:29 AM 59.0 °F 59.0 °F 100% 29.89 in 9.0 mi SE 3.5 mph - N/A   Overcast
6:38 AM 59.0 °F 59.0 °F 100% 29.90 in 9.0 mi Calm Calm - N/A   Overcast
6:55 AM 60.3 °F 60.3 °F 100% 29.90 in 9.0 mi SSE 4.6 mph - N/A   Overcast
7:06 AM 60.8 °F 60.8 °F 100% 29.90 in 9.0 mi SSE 4.6 mph - N/A   Overcast
7:55 AM 62.1 °F 62.1 °F 100% 29.91 in 8.0 mi SE 5.8 mph - N/A   Overcast
8:55 AM 63.3 °F 62.4 °F 97% 29.92 in 8.0 mi South 6.9 mph - N/A   Overcast
9:25 AM 64.4 °F 62.6 °F 94% 29.94 in 7.0 mi South 5.8 mph - N/A   Overcast
9:53 AM 64.4 °F 62.6 °F 94% 29.93 in 8.0 mi South 5.8 mph - N/A   Overcast
9:55 AM 64.6 °F 62.4 °F 93% 29.93 in 8.0 mi South 6.9 mph - N/A   Overcast
10:13 AM 66.2 °F 62.6 °F 88% 29.93 in 9.0 mi South 4.6 mph - N/A   Overcast
10:35 AM 68.0 °F 62.6 °F 83% 29.93 in 10.0 mi Variable 5.8 mph - N/A   Overcast
10:55 AM 69.4 °F 61.7 °F 76% 29.93 in 10.0 mi South 8.1 mph - N/A   Mostly Cloudy
10:57 AM 69.8 °F 62.6 °F 78% 29.93 in 10.0 mi South 4.6 mph - N/A   Scattered Clouds
11:55 AM 73.2 °F 61.5 °F 67% 29.91 in 10.0 mi SE 9.2 mph - N/A   Clear
12:55 PM 73.4 °F 58.5 °F 59% 29.89 in 10.0 mi South 8.1 mph - N/A   Scattered Clouds
1:55 PM 74.7 °F 55.6 °F 51% 29.87 in 10.0 mi Variable 4.6 mph - N/A   Scattered Clouds
2:55 PM 77.2 °F 57.7 °F 51% 29.84 in 10.0 mi SE 8.1 mph - N/A   Clear
3:55 PM 77.9 °F 56.5 °F 48% 29.82 in 10.0 mi ESE 5.8 mph - N/A   Partly Cloudy
4:55 PM 77.7 °F 57.7 °F 50% 29.80 in 10.0 mi South 6.9 mph - N/A   Partly Cloudy
5:55 PM 76.3 °F 57.4 °F 52% 29.78 in 10.0 mi South 4.6 mph - N/A   Clear
6:55 PM 71.4 °F 59.9 °F 67% 29.78 in 10.0 mi ESE 3.5 mph - N/A   Clear
7:55 PM 68.0 °F 60.1 °F 76% 29.79 in 10.0 mi ESE 3.5 mph - N/A   Clear
8:55 PM 64.4 °F 60.3 °F 86% 29.81 in 10.0 mi Calm Calm - N/A   Partly Cloudy
9:55 PM 63.9 °F 60.3 °F 88% 29.81 in 10.0 mi Calm Calm - N/A   Clear
10:55 PM 61.5 °F 58.8 °F 91% 29.81 in 9.0 mi Calm Calm - N/A   Clear
11:55 PM 61.0 °F 59.0 °F 93% 29.82 in 8.0 mi WNW 11.5 mph - N/A   Mostly Cloudy